User: anonymous   Login
Location: Caltech
(34.1382°N, 118.1253°W)
Time: 22:06:19
(UTC-08:00)
Language:

Cosmos 2084 - Orbit

View from above orbital plane
View from above orbital plane
View from above satellite
View from above satellite

Ground track
Ground track

The orbit data is extracted from the following two-line orbital elements,

1 20663U 90055A   16037.64193871  .00000574  00000-0  69956-4 0  9997
2 20663  62.7932  84.7000 0110831  39.7352 321.1792 14.90979798385756
Epoch (UTC): 06 February 2016 15:24:23
Eccentricity: 0.0110831
inclination: 62.7932°
perigee height: 517 km
apogee height: 672 km
right ascension of ascending node: 84.7000°
argument of perigee: 39.7352°
revolutions per day: 14.90979798
mean anomaly at epoch: 321.1792°
orbit number at epoch: 38575

The dashed part of the orbit path shows where the satellite is in the earth's shadow,  

DLR